Weather Roundup
Issued by NWS Chicago, IL

Home | Current Version | Previous Version | Graphics & Text | Print | Product List | Glossary On
Versions: 1 2 3 4 5 6 7 8 9 10 11 12 13 14 15 16 17 18 19 20 21 22 23 24 25 26 27 28 29 30 31 32 33 34 35 36 37 38 39 40 41 42 43 44 45 46 47 48 49 50
000
NZUS59 KLOT 211110
HRRLOT

CHICAGO AREA WEATHER ROUNDUP
NATIONAL WEATHER SERVICE CHICAGO/ROMEOVILLE IL
600 AM CDT TUE OCT 21 2014

NOTE: "FAIR" INDICATES FEW OR NO CLOUDS BELOW 12,000 FEET WITH NO
SIGNIFICANT WEATHER AND/OR OBSTRUCTIONS TO VISIBILITY.

* THESE STATIONS ARE NOT UNDER NWS QUALITY CONTROL. THEY ALSO MAY NOT
  REPORT WEATHER SUCH AS PRECIPITATION OR FOG.

ILZ005-006-012>014-019>023-211200-
NORTHEAST ILLINOIS

CITY           SKY/WX    TMP DP  RH WIND       PRES   REMARKS
OHARE          MOCLDY    48  40  73 N10       30.07R
MIDWAY         CLOUDY    51  43  74 N9        30.06R
AURORA         MOCLDY    44  39  82 N7        30.09R
LANSING*       LGT RAIN  49  45  85 N6        30.05R
JOLIET*        CLOUDY    48  43  81 N6        30.08R
WAUKEGAN       CLOUDY    45  39  79 NW6       30.08R
DUPAGE AIRPORT MOCLDY    47  40  76 N9        30.08R
WHEELING       CLEAR     47  40  76 N9        30.09R
KANKAKEE*      CLOUDY    48  44  85 NW6       30.07R
MORRIS*        CLOUDY    46  44  92 CALM      30.07R
LEWIS AIRPORT* CLOUDY    48  41  77 N6        30.07R
NORTHERLY IS     N/A     51  42  71 N15         N/A
$$

WIZ051-052-058>065-066-070>072-211200-
SOUTHEAST WISCONSIN

CITY           SKY/WX    TMP DP  RH WIND       PRES   REMARKS
MILWAUKEE      PTCLDY    45  38  76 N8        30.10R
KENOSHA*       CLOUDY    45  40  82 N7        30.09R
RACINE*        CLOUDY    46  39  76 N10       30.10R
BURLINGTON     CLOUDY    44  37  77 N6        30.09R
WAUKESHA       MOCLDY    43  37  81 NW7       30.10R
WEST BEND      CLOUDY    43  36  75 N7        30.11R
$$

INZ001>003-010>013-019-020-211200-
NORTHWEST INDIANA

CITY           SKY/WX    TMP DP  RH WIND       PRES   REMARKS
GARY*          CLOUDY    52  45  76 N12G23    30.05R
MICHIGAN CITY* NOT AVBL
RENSSELAER*    NOT AVBL
VALPARAISO     CLOUDY    47  44  90 N6        30.04R
$$

LMZ740>746-211200-
SOUTHERN LAKE MICHIGAN

STATION/POSITION TIME  SKY/WX   TEMP WIND        PRES    VSBY
                                AIR  DIR/SP/G
                 (UTC)          (F)  (DEG/KT/KT) (MB)    (MI)
HARRISON CRIB    1100            51  360/ 24/ 27   N/A
BURNHAM HARBOR   1100            51  360/ 12/ 18   N/A
CALUMET HARBOR   1100            51  340/ 11/ 17 1016.5R
BURNS HARBOR     NOT AVBL
MICHIGAN CITY    1100            51  340/ 25/ 28   N/A
$$

ABBREVIATIONS USED IN REMARKS
   TC - TEMPERATURE IN CELSIUS
  WCI - WIND CHILL INDEX
   HX - HEAT INDEX
  VSB - VISIBILITY
$$



USA.gov is the U.S. government's official web portal to all federal, state and local government web resources and services.